This demonstration page uses our WeatherBlox Daily Observations layout. Learn more.

Left ArrowRight Arrow

39.29038, -76.61219

Hourly Observations for August 17, 2015

Temp ( °F °C ) Dew Point ( °F °C ) Humidity (%) Winds ( mph kmh ) Pressure ( in mb ) Visibility ( mi km ) Precip ( " mm )
12:54 am 00:54 undefined 77 25 63 17.2 62 62 undefined N/A 30.12 1020 N/A 0.00 0.00
1:54 am 01:54 Mostly Clear 78 25.6 75 23.9 90 90 undefined N/A 30.16 1022 N/A 0.01 0.25
2:54 am 02:54 undefined 76 24.4 64 17.8 67 67 undefined N/A 30.11 1020 N/A 0.00 0.00
3:54 am 03:54 Mostly Clear 75 23.9 72 22.2 90 90 undefined N/A 30.04 1017 N/A 0.00 0.00
4:54 am 04:54 Clear 74 23.3 64 17.8 71 71 undefined N/A 30.11 1020 N/A 0.00 0.00
5:54 am 05:54 Cloudy 73 22.8 65 18.3 76 76 undefined N/A 30.11 1020 N/A 0.00 0.00
6:54 am 06:54 Mostly Cloudy 80 26.7 74 23.3 82 82 undefined N/A 30.03 1017 N/A 0.00 0.03
7:54 am 07:54 undefined 76 24.4 66 18.9 72 72 undefined N/A 30.13 1020 N/A 0.00 0.00
8:54 am 08:54 undefined 79 26.1 67 19.4 67 67 undefined N/A 30.12 1020 N/A 0.00 0.00
9:54 am 09:54 undefined 82 27.8 68 20 63 63 undefined N/A 30.11 1020 N/A 0.00 0.00
10:54 am 10:54 Cloudy 81 27.2 75 23.9 82 82 undefined N/A 30.09 1019 N/A 0.00 0.03
11:54 am 11:54 undefined 87 30.6 70 21.1 57 57 undefined N/A 30.10 1019 N/A 0.00 0.00
12:54 pm 12:54 undefined 90 32.2 70 21.1 52 52 undefined N/A 30.09 1019 N/A 0.00 0.00
1:54 pm 13:54 Sunny 92 33.5 66 19.1 43 43 undefined N/A 30.09 1019 N/A 0.00 0.00
2:54 pm 14:54 undefined 91 32.8 71 21.7 52 52 undefined N/A 30.06 1018 N/A 0.00 0.00
3:54 pm 15:54 undefined 90 32.2 71 21.7 54 54 undefined N/A 30.04 1017 N/A 0.00 0.00
4:54 pm 16:54 undefined 90 32.2 68 20 48 48 undefined N/A 30.04 1017 N/A 0.00 0.00
5:54 pm 17:54 Mostly Cloudy 85 29.3 67 19.7 56 56 undefined N/A 29.62 1003 N/A 0.00 0.00
6:54 pm 18:54 undefined 87 30.6 66 18.9 50 50 undefined N/A 30.02 1017 N/A 0.00 0.00
7:54 pm 19:54 undefined 85 29.4 63 17.2 48 48 undefined N/A 30.02 1017 N/A 0.00 0.00
8:54 pm 20:54 Cloudy 84 28.9 59 15 43 43 undefined N/A 30.03 1017 N/A 0.00 0.00
9:54 pm 21:54 undefined 82 27.8 59 15 46 46 undefined N/A 30.04 1017 N/A 0.00 0.00
10:54 pm 22:54 Mostly Cloudy 80 26.7 65 18.3 60 60 undefined N/A 29.98 1015 N/A 0.00 0.00
11:54 pm 23:54 Cloudy 54 12.2 50 10 87 87 undefined N/A 29.80 1009 N/A 0.00 0.00

Powered by AerisWeather